Back to catalog

STARLINK-34939

AliveCommunicationsSSO
NORAD 65183·PAYLOAD·🇺🇸 United States

Launched Aug 14, 2025 from Vandenberg Space Force Base

Loading…

Next Passes (next 24 hours)

TLE

FreshSource: CelesTrak SupGP

Epoch: Sep 14, 2026, 20:53 UTC

1 65183C 25175K   26257.87062500  .00020055  00000+0  62208-3 0  2572
2 65183  97.2843 126.9967 0001818  93.9832 301.8803 15.33452525    19

Track STARLINK-34939 in real time with AllMySat

Download on the App Store